Skip Page Navigation
NASA JPL Caltech
NASA Logo - Jet Propulsion Laboratory + View the NASA Portal
+ Near-Earth Object (NEO) Program
Search JPL
JPL Home Earth Solar System Stars & Galaxies Technology
JPL Solar System Dynamics
BODIES ORBITS EPHEMERIDES TOOLS PHYSICAL DATA DISCOVERY FAQ SITE MAP
JPL Small-Body Database Browser
Search: [ help ]  
42606 (1998 DD)
Classification: Main-belt Asteroid          SPK-ID: 2042606
Ephemeris | Orbit Diagram | Orbital Elements | Physical Parameters | Discovery Circumstances | Close-Approach Data ]

[ show orbit diagram ]
Orbital Elements at Epoch 2457000.5 (2014-Dec-09.0) TDB
Reference: JPL 8 (heliocentric ecliptic J2000)
 Element Value Uncertainty (1-sigma)   Units 
e .2089709838089492 6.3062e-08  
a 2.341269084354237 1.8098e-08 AU
q 1.852011780435254 1.5181e-07 AU
i 7.308135116332318 8.6405e-06 deg
node 59.07198821712823 5.4705e-05 deg
peri 91.7153790637069 5.8705e-05 deg
M 252.72405724555 2.4353e-05 deg
tp 2457390.419775366600
(2016-Jan-02.91977537)
9.1178e-05 JED
period 1308.505108673613
3.58
1.5172e-05
4.154e-08
d
yr
n .2751231138599983 3.1901e-09 deg/d
Q 2.830526388273219 2.188e-08 AU
  Orbit Determination Parameters
   # obs. used (total)      570  
   data-arc span      12781 days (34.99 yr)  
   first obs. used      1980-01-23  
   last obs. used      2015-01-20  
   planetary ephem.      DE431  
   SB-pert. ephem.      SB431-BIG16  
   condition code      0  
   fit RMS      .54593  
   data source      ORB  
   producer      Otto Matic  
   solution date      2015-Mar-09 16:10:07  

Additional Information
 Earth MOID = .88053 AU 
 T_jup = 3.524 
[ show covariance matrix ]

Ephemeris | Orbit Diagram | Orbital Elements | Physical Parameters | Discovery Circumstances | Close-Approach Data ]

Physical Parameter Table
Parameter Symbol Value Units Sigma Reference Notes
absolute magnitude H 15.0 mag n/a MPO319595  

42606 (1998 DD)          Discovered 1998-Feb-16 by BAO Schmidt CCD Asteroid Program at Xinglong
Reference: 20020624/Numbers.arcLast Updated: 2004-04-19

[ show close-approach data ]
Alternate Designations
 1998 DD = 1980 BN2 = 1986 YK1 
Ephemeris | Orbit Diagram | Orbital Elements | Physical Parameters | Discovery Circumstances | Close-Approach Data ]
ABOUT SSD CREDITS/AWARDS PRIVACY/COPYRIGHT GLOSSARY LINKS
FirstGov 2015-Apr-01 08:00 UT
(server date/time)  
NASA Home Page
Site Manager:   Ryan S. Park
Webmaster  Alan B. Chamberlin